FENGYUN 1C DEB, 31333

Orbit data source: Space-Track

FENGYUN 1C DEB, 31333 is space debris in SSO originally from a launch on Mon, 10 May 1999 UTC launched from the Taiyaun Space Center, China (TSC). Fengyun 1C debris stems from the Chinese weather satellite Fengyun-1C, which was intentionally destroyed by a Chinese anti-satellite missile in 2007. This event dramatically increased the amount of space debris, with thousands of trackable fragments posing hazards to satellites and human spaceflight. The Fengyun 1C debris cloud has become a focal point in discussions about space sustainability and the need for international regulations to prevent the creation of new debris.

Loading next visibility...
Identifier
31333, 1999-025BQM
Orbit
SSO
Country
Flag of CNCN / PRC
Related business
Manufacturer
Unknown
Mission
Spacecraft
Bus & Motor
Unknown
Mass
Unknown
Launch date (UTC)
1999-05-10 (27 years ago)
Launch vehicle
Unknown
Launch site
Taiyaun Space Center, China (TSC)
Object type
Payload
Rocket body
Debris
Shape & HBR
Unknown shape, 0.1 m
Radar Cross Section
Small (<0.1 m²)

Expand to show TLE details & history
Last TLE update: 19 hours ago

TLE from 19 hours ago
0 FENGYUN 1C DEB
1 31333U 99025BQM 25354.77980058  .00001199  00000-0  48898-3 0  9991
2 31333  98.4277   9.0567 0098273   2.9268 357.2467 14.26566831967069
Epoch: 2025-12-20T18:42Z
TLE epoch observation values (Epoch: 2025-12-20T18:42:54.770Z)
Latitude
-0.00006°
Longitude
-1.2732°
Altitude
735.658 km
Speed
7.524 km/s
True Right ascension
00h 36m 13s
True Declination
0° 00' 00"
Sunlit
Object was in daylight at epoch
Visualization orbit readout
Latitude
Unknown
Longitude
Unknown
Altitude
Unknown
Speed
Unknown
Apparent Right ascension
Unknown
Apparent Declination
Unknown
Sunlit
N/A
Visualization observer readout
Local Sidereal Time
13:00:58
Azimuth
Unknown
Elevation
Unknown
Doppler factor
Unknown
Orbital elements
Apogee altitude
870.911 km
Perigee altitude
729.82 km
Semi-major axis
7,178.503 km
Eccentricity
0.00983
Inclination
98.4277°
RAAN
9.0567°
Arg. of periapsis
2.9268°
True anomaly
357.19193°
Mean anomaly
357.2467°
Eccentric anomaly
357.21938°
Mean motion
3.56855 °/min
Orbital period
100.88 mins
BSTAR
0.00048898
Loading maneuver chart data...
Computing Atmospheric mass density...

Documentation

Showing up to 5 results
|